User: anonymous
Location: Hickory_CSC
(35.7330°N, 81.3330°W)
Time: 21:34:32
(UTC-04:00)
Language:

Cosmos 1356 Rocket - Orbit

View from above orbital plane
View from above orbital plane
View from above satellite
View from above satellite

Ground track
Ground track

The orbit data is extracted from the following two-line orbital elements,

1 13154U 82039B   14205.43121176  .00000661  00000-0  55700-4 0  3463
2 13154 081.1867 344.4226 0042996 133.9419 226.5360 14.96131345745278
Epoch (UTC): 24 July 2014 10:20:56
Eccentricity: 0.0042996
inclination: 81.1867°
perigee height: 549 km
apogee height: 609 km
right ascension of ascending node: 344.4226°
argument of perigee: 133.9419°
revolutions per day: 14.96131345
mean anomaly at epoch: 226.5360°
orbit number at epoch: 74527

The dashed part of the orbit path shows where the satellite is in the earth's shadow,  

DLR